Location: Shepherdstown, WV
(39.4326°N, 77.8042°W)
Time: 03:27:35
(UTC-04:00)

Vanguard 1 - Pass Details

Date: 01 October 2021
Orbit: 653 x 3829 km, 34.2° (Epoch: 18 October)

Event Time Altitude Azimuth Distance (km) Brightness Sun altitude
Rises 21:05:38 0° 267° (W) 5,661 15.0 -26.1°
Reaches altitude 10° 21:08:42 10° 265° (W) 4,991 14.5 -26.6°
Maximum altitude 21:24:46 75° 184° (S) 3,454 12.6 -29.6°
Enters shadow 21:35:01 43° 113° (ESE) 4,608 12.8 -31.4°
